Wind_Speed
20 18 16 14 14 13 13 14 15 14 14 15 16 17 17 16 16 16 15 15 14 13 12 12 13 12 11 9 9 7 8 8 9 8 6 8 9 9 7 11 13 6 13 9 11 8 11
22 21 19 18 17 16 15 15 15 16 16 15 16 16 17 18 18 18 17 17 17 17 16 15 15 13 12 11 10 9 8 9 9 9 8 8 9 10 9 12 10 8 16 11 12 14 8
24 22 21 21 20 19 18 16 17 17 17 17 16 16 17 18 18 19 19 19 19 20 19 19 20 19 17 17 15 12 11 10 10 10 8 8 9 8 11 7 13 12 9 5 8 7 11
24 23 22 21 22 22 21 19 18 17 19 18 18 17 17 18 18 18 18 18 18 19 20 20 22 22 22 16 19 17 14 12 11 10 9 8 9 11 11 11 11 10 5 6 15 13 12
24 24 24 24 24 23 23 23 21 21 21 21 20 19 19 19 19 19 18 18 18 19 20 21 22 22 25 19 22 21 18 17 13 11 10 9 10 11 12 8 5 8 7 12 17 22 14
27 26 26 26 26 26 25 24 24 23 22 22 23 23 21 21 22 21 21 21 20 20 20 21 22 22 24 23 22 20 22 20 17 14 11 11 12 13 12 10 6 10 14 20 15 13 11
28 28 28 28 29 28 27 26 25 24 24 24 24 24 24 23 23 24 24 24 23 22 21 21 20 23 17 21 20 23 24 23 20 16 14 13 13 12 12 11 13 16 17 11 3 14 20
28 28 29 29 28 27 26 25 25 25 24 24 25 26 25 25 24 25 25 24 24 22 22 21 21 22 18 20 20 21 23 22 22 18 19 17 11 11 11 15 15 14 13 14 11 11 24
25 26 26 25 25 24 24 23 23 23 23 23 24 26 26 25 25 25 24 23 23 22 22 22 21 20 18 18 17 17 18 21 22 23 20 18 12 10 12 18 18 16 15 18 12 21 19
22 23 22 23 23 23 22 22 21 21 22 23 23 24 25 26 26 25 23 22 22 22 21 23 23 21 16 16 14 14 14 16 21 20 22 22 15 19 19 18 18 19 14 20 16 17 17
19 18 19 19 20 20 19 18 17 18 19 20 22 24 24 25 25 24 24 23 22 21 20 30 24 18 19 17 18 15 16 16 14 16 23 19 23 21 24 21 17 19 20 16 17 18 21
15 15 16 16 17 17 17 18 18 18 19 19 21 23 25 26 26 26 24 24 23 23 21 29 23 22 20 20 17 20 17 17 16 18 21 21 24 21 25 21 20 19 19 18 16 16 20
13 12 13 14 14 15 16 18 19 20 21 21 21 22 24 25 25 26 25 25 24 24 27 29 29 24 21 21 21 22 18 19 18 19 18 16 24 27 22 27 23 21 17 18 20 21 20
9 9 9 9 10 11 11 13 14 15 17 19 20 21 22 23 24 24 25 25 24 14 14 28 31 24 22 20 22 23 23 22 19 20 18 17 20 23 29 28 24 23 21 21 20 19 19
6 6 6 7 7 9 10 12 13 14 15 16 17 18 19 20 21 21 22 22 17 17 26 33 27 25 21 23 25 25 25 23 22 21 20 16 19 14 22 28 29 26 26 22 22 23 24
4 4 4 4 6 7 9 10 11 12 13 13 14 15 15 16 17 18 19 20 29 35 35 26 23 18 14 15 22 27 23 24 26 25 23 22 22 17 18 27 31 34 23 23 24 26 28
3 2 1 2 3 5 6 7 8 8 9 10 11 12 13 14 15 16 16 19 27 27 21 23 22 25 18 19 17 18 22 20 19 27 26 25 27 25 20 25 23 29 35 32 26 23 24
7 7 6 5 4 4 5 6 7 8 9 10 12 11 12 13 14 16 16 24 23 18 20 21 22 24 28 27 26 22 19 22 17 27 33 26 26 29 25 23 23 24 26 32 29 27 28
9 9 9 8 8 7 6 5 5 5 7 9 10 10 13 14 15 17 15 23 20 21 21 22 24 24 26 26 29 29 24 21 30 38 31 24 30 32 28 25 25 28 27 30 26 24 24
11 10 10 10 9 9 8 7 7 7 7 6 7 9 9 10 13 14 15 18 19 20 21 22 24 26 28 28 26 27 21 18 28 37 35 34 38 26 29 26 22 27 26 27 30 31 30
7 6 8 10 11 11 12 11 10 9 8 7 8 7 8 9 12 13 14 16 17 17 19 22 23 24 25 27 26 27 24 23 22 38 27 33 40 31 26 27 26 26 25 27 32 34 30
3 5 9 11 13 14 14 13 12 10 8 9 9 9 9 9 10 10 11 12 14 16 17 18 22 23 23 25 25 26 19 35 39 38 30 28 33 26 27 24 26 31 30 28 29 30 38
6 9 12 14 15 17 18 17 14 12 11 10 10 10 10 11 11 11 13 13 13 15 16 18 19 20 22 21 29 32 39 43 41 37 37 33 33 22 27 25 26 36 34 30 29 30 33
11 14 15 16 19 20 18 17 14 13 12 12 12 12 12 13 15 16 16 16 15 15 15 17 19 19 20 26 23 28 34 37 38 38 40 42 37 32 28 27 38 36 28 31 33 28 27
14 14 16 19 20 19 17 13 12 12 13 14 14 14 14 16 16 16 17 17 17 17 16 16 16 17 20 21 23 26 29 33 35 33 29 28 26 21 32 36 51 35 29 29 33 36 33
14 15 18 18 17 16 16 16 14 13 14 15 17 18 18 18 19 18 19 20 19 18 18 19 18 17 19 19 22 24 25 24 21 27 36 34 25 33 40 42 45 37 31 27 28 38 39
16 17 18 18 18 18 17 17 17 16 17 17 19 20 22 21 24 21 21 20 21 21 20 21 20 19 20 19 22 22 15 23 30 33 32 35 40 44 37 35 33 15 34 29 35 39 28
16 17 18 19 20 21 21 19 19 19 19 20 21 22 22 22 25 25 25 24 24 23 22 21 19 21 24 21 20 20 14 29 33 34 24 17 43 48 37 31 26 33 28 29 44 30 37
19 20 22 23 24 23 22 20 20 21 22 23 23 23 25 24 27 24 25 26 26 27 25 22 20 23 22 25 22 20 17 33 29 22 19 29 39 41 33 27 25 33 42 36 17 31 50
Wind_Direction
241 247 256 265 278 286 276 261 255 255 257 252 249 249 248 249 251 250 249 250 253 254 258 255 253 250 249 241 239 244 243 251 256 252 233 212 209 192 158 238 226 235 236 252 297 274 290
242 248 256 265 275 280 274 267 262 258 258 258 251 252 251 248 247 247 249 251 253 257 255 256 255 252 250 249 250 245 241 243 247 252 252 238 223 215 216 224 216 197 260 308 302 329 337
243 250 259 267 273 275 272 264 259 260 260 261 259 253 250 249 250 249 249 249 249 248 250 252 254 255 252 251 244 241 243 241 244 249 250 255 240 230 198 215 248 239 253 245 251 280 295
244 251 257 265 269 271 267 262 260 258 258 259 260 258 254 251 250 250 249 248 250 253 254 253 254 256 253 253 248 243 243 244 242 246 247 241 243 235 238 207 249 244 238 314 292 272 259
245 250 256 263 263 266 265 263 262 259 258 256 257 257 255 255 254 254 255 255 255 255 257 257 257 257 257 252 247 245 242 241 238 237 240 242 234 229 228 218 252 13 347 274 292 297 300
246 250 255 259 262 264 265 265 264 260 260 259 255 255 255 253 253 253 256 259 261 261 262 261 258 257 254 246 246 245 243 241 238 235 236 238 236 232 224 185 246 235 247 229 271 297 305
245 249 253 256 259 262 264 266 264 262 261 258 256 254 253 252 253 253 254 257 261 264 264 260 257 254 247 242 237 235 239 240 239 236 237 236 242 250 229 225 217 262 281 290 297 286 301
243 248 252 256 259 261 262 262 262 261 259 256 253 251 251 251 252 252 253 255 258 260 262 261 257 257 250 247 243 239 239 240 240 232 231 238 242 243 219 223 236 255 256 274 272 262 279
242 246 249 253 256 258 257 257 257 257 256 254 252 251 250 250 250 251 252 253 255 256 255 256 253 250 246 243 240 240 238 236 237 231 232 237 239 259 251 242 234 231 242 261 252 267 273
237 242 246 249 252 253 254 255 255 255 254 252 251 249 247 248 248 248 248 249 252 253 253 252 246 242 243 243 241 238 235 235 236 235 230 231 222 201 254 255 232 240 238 248 239 258 264
236 239 243 245 247 249 250 252 255 259 261 258 253 250 248 246 246 246 246 246 245 243 242 252 241 243 240 240 243 246 238 242 241 238 232 228 228 227 230 251 239 237 239 239 261 249 269
230 236 241 246 248 248 248 251 257 262 265 265 261 254 248 244 243 242 240 240 240 233 238 248 248 241 241 241 240 242 243 246 240 239 238 231 225 237 242 243 243 234 222 228 250 268 263
230 236 241 243 246 248 254 260 263 265 267 266 264 260 252 245 242 240 239 237 234 227 236 257 249 242 240 239 238 241 236 244 246 247 248 242 235 233 240 235 238 234 227 237 239 248 269
206 222 232 237 242 249 258 263 267 271 271 269 264 259 253 247 244 240 238 235 231 213 239 241 246 246 241 242 239 240 241 243 242 247 244 247 243 238 241 243 243 241 226 228 241 240 256
183 199 216 232 248 255 262 266 268 270 270 268 264 258 254 248 242 238 235 230 208 212 216 238 242 243 244 239 243 247 244 245 240 240 243 231 250 273 267 249 232 230 227 231 235 243 257
175 197 221 248 260 270 274 276 276 275 272 270 266 258 249 243 240 234 230 222 212 220 235 248 243 234 240 258 254 242 245 246 245 246 243 236 224 213 238 263 242 230 221 231 238 236 240
131 122 96 306 306 294 290 288 284 281 276 270 262 255 248 240 234 232 223 206 224 238 238 234 230 223 223 191 227 243 235 244 246 241 241 240 239 228 233 238 243 235 226 212 222 245 247
90 80 67 51 32 359 321 298 287 282 275 267 263 256 248 241 235 230 229 228 243 243 238 237 237 238 247 222 233 243 214 242 233 250 237 236 241 242 231 232 252 249 227 235 224 226 232
84 77 68 54 39 19 1 344 321 295 281 275 273 262 247 242 239 234 228 249 247 247 247 241 240 240 241 238 242 247 241 233 233 238 239 220 242 239 231 236 231 239 236 219 234 232 236
92 77 60 44 30 17 1 337 317 303 289 292 281 262 253 246 245 248 247 255 249 247 247 246 243 241 241 244 245 249 246 220 247 256 249 238 228 234 241 240 230 246 252 239 221 231 226
84 56 30 14 5 358 354 342 322 301 291 288 274 273 256 242 241 240 248 254 255 253 249 249 248 246 245 246 247 246 242 220 245 255 246 230 229 224 231 233 231 230 233 245 233 222 230
27 357 345 341 338 336 335 331 324 296 290 281 277 267 266 260 259 260 259 257 255 254 253 255 249 241 242 244 241 231 226 233 223 249 242 240 231 227 239 236 238 233 225 224 245 243 221
317 322 325 325 324 322 318 312 305 295 281 280 271 269 265 260 260 260 260 257 256 255 253 252 254 249 248 242 233 233 227 232 231 243 250 242 236 221 250 248 242 240 228 224 226 240 245
314 318 318 320 321 322 316 307 295 285 275 272 274 272 265 264 264 265 263 260 260 258 256 256 258 257 255 255 255 250 251 251 246 245 258 254 218 215 232 230 248 249 234 234 221 220 230
308 311 315 319 323 326 330 323 307 287 276 271 271 272 272 268 267 268 268 268 265 260 258 260 261 260 260 256 255 254 251 251 256 258 254 258 251 240 239 237 243 217 229 230 231 227 211
302 307 311 314 318 321 322 320 309 298 286 279 273 270 269 270 270 270 267 267 267 267 260 261 259 260 260 258 253 259 255 255 255 246 243 244 251 230 233 246 247 255 214 210 230 239 225
301 306 309 311 313 316 316 314 309 299 290 286 283 278 273 268 270 268 269 268 266 267 265 260 257 259 259 259 259 266 259 253 256 250 240 256 234 240 247 253 256 251 187 199 226 227 220
303 307 310 311 312 312 309 303 299 298 295 289 285 283 280 277 271 267 264 265 263 262 263 264 258 255 257 261 263 265 254 252 251 261 256 266 228 229 229 232 248 226 209 223 227 198 219
304 305 305 306 306 306 307 303 300 297 293 291 289 286 282 278 278 271 266 263 259 257 255 256 255 256 256 256 256 246 235 260 260 282 286 218 220 229 241 248 231 221 204 208 208 198 211
Height
5864 5866 5868 5870 5871 5871 5871 5872 5873 5874 5875 5877 5879 5880 5882 5883 5885 5886 5888 5890 5891 5893 5894 5895 5897 5899 5900 5902 5903 5904 5905 5905 5906 5908 5909 5910 5912 5912 5914 5917 5917 5918 5917 5915 5916 5918 5916
5860 5862 5864 5866 5867 5868 5869 5869 5870 5871 5873 5874 5876 5877 5879 5880 5882 5884 5885 5887 5888 5889 5891 5893 5894 5896 5898 5900 5901 5902 5903 5904 5905 5906 5907 5908 5909 5910 5911 5913 5914 5914 5913 5913 5915 5915 5915
5856 5858 5860 5862 5863 5864 5865 5866 5867 5868 5870 5871 5872 5874 5876 5877 5879 5881 5883 5884 5886 5888 5889 5890 5892 5893 5896 5897 5898 5900 5901 5902 5903 5904 5905 5906 5907 5908 5910 5912 5913 5913 5915 5916 5912 5914 5914
5851 5853 5856 5857 5859 5860 5861 5862 5864 5865 5867 5868 5870 5871 5873 5874 5876 5877 5879 5881 5883 5884 5885 5887 5888 5889 5891 5894 5895 5897 5899 5900 5902 5902 5903 5904 5904 5905 5907 5909 5911 5912 5913 5913 5915 5913 5913
5846 5848 5851 5853 5854 5856 5857 5858 5860 5862 5863 5865 5866 5868 5869 5870 5872 5873 5875 5877 5879 5880 5881 5882 5884 5885 5885 5891 5892 5893 5895 5897 5899 5900 5900 5901 5902 5903 5904 5907 5910 5912 5915 5915 5914 5914 5910
5840 5843 5846 5848 5849 5851 5852 5853 5855 5857 5859 5860 5862 5864 5865 5867 5868 5870 5871 5872 5874 5876 5877 5878 5880 5882 5882 5885 5887 5889 5891 5893 5895 5897 5899 5899 5900 5900 5902 5904 5911 5910 5914 5911 5914 5914 5911
5835 5838 5840 5842 5844 5846 5847 5849 5850 5852 5854 5855 5857 5859 5861 5863 5864 5865 5867 5869 5871 5873 5873 5874 5877 5876 5879 5880 5883 5884 5885 5888 5891 5895 5896 5896 5897 5898 5900 5904 5909 5913 5913 5910 5911 5909 5910
5829 5832 5834 5837 5839 5840 5842 5844 5845 5846 5848 5850 5852 5854 5856 5857 5859 5861 5862 5864 5865 5868 5868 5869 5871 5872 5875 5875 5878 5879 5881 5885 5887 5891 5892 5894 5896 5896 5897 5903 5907 5912 5913 5914 5914 5915 5911
5824 5827 5829 5831 5833 5835 5837 5839 5840 5841 5842 5844 5846 5847 5850 5852 5854 5856 5857 5859 5860 5862 5864 5865 5867 5868 5870 5872 5873 5875 5878 5880 5882 5885 5889 5891 5893 5894 5896 5899 5903 5907 5911 5912 5915 5911 5910
5819 5822 5824 5826 5828 5830 5831 5833 5834 5836 5837 5838 5840 5842 5844 5846 5849 5850 5852 5854 5855 5857 5859 5861 5862 5864 5867 5868 5871 5871 5873 5876 5876 5880 5884 5886 5890 5892 5898 5896 5899 5903 5909 5908 5911 5907 5909
5815 5817 5820 5822 5823 5825 5826 5828 5829 5830 5832 5833 5834 5836 5838 5840 5842 5845 5847 5849 5851 5853 5856 5853 5858 5862 5862 5866 5867 5868 5869 5871 5873 5876 5878 5883 5885 5888 5891 5894 5896 5900 5905 5906 5907 5908 5905
5812 5814 5816 5817 5819 5821 5822 5824 5825 5826 5827 5828 5829 5830 5832 5834 5836 5839 5841 5844 5846 5851 5851 5849 5854 5856 5859 5861 5863 5864 5866 5868 5870 5871 5873 5877 5880 5884 5887 5890 5891 5894 5897 5901 5902 5904 5903
5808 5811 5813 5814 5816 5817 5818 5820 5820 5821 5821 5822 5823 5824 5826 5828 5831 5833 5836 5839 5843 5845 5846 5846 5848 5852 5854 5856 5858 5860 5863 5864 5866 5868 5870 5873 5875 5878 5882 5884 5887 5889 5893 5897 5900 5901 5900
5806 5808 5810 5811 5813 5814 5815 5816 5816 5816 5817 5817 5818 5819 5820 5822 5824 5827 5830 5834 5838 5844 5847 5840 5842 5847 5851 5852 5853 5855 5857 5860 5863 5864 5867 5869 5871 5874 5877 5879 5884 5885 5890 5894 5897 5898 5899
5805 5807 5808 5810 5811 5812 5812 5812 5813 5813 5813 5813 5814 5815 5816 5817 5819 5822 5825 5829 5834 5835 5835 5832 5839 5842 5846 5848 5850 5851 5853 5856 5858 5860 5863 5867 5870 5873 5872 5873 5877 5881 5883 5891 5893 5895 5895
5805 5806 5807 5808 5809 5809 5809 5809 5809 5809 5809 5810 5810 5811 5812 5813 5815 5817 5820 5824 5822 5823 5826 5832 5835 5838 5842 5847 5846 5847 5849 5851 5853 5855 5858 5861 5863 5868 5873 5869 5869 5872 5881 5887 5887 5888 5888
5805 5806 5806 5807 5807 5807 5807 5807 5806 5806 5806 5807 5807 5807 5809 5810 5812 5814 5816 5819 5818 5818 5824 5827 5829 5831 5835 5840 5844 5842 5844 5848 5850 5850 5852 5855 5857 5861 5866 5865 5866 5868 5871 5875 5881 5885 5885
5805 5805 5806 5806 5807 5806 5805 5805 5805 5805 5805 5804 5804 5806 5806 5807 5810 5810 5813 5813 5814 5817 5819 5821 5823 5826 5827 5831 5833 5835 5839 5843 5843 5844 5845 5849 5851 5852 5857 5862 5864 5862 5866 5870 5872 5878 5881
5806 5806 5807 5807 5807 5806 5806 5805 5804 5803 5803 5802 5802 5802 5802 5804 5805 5806 5808 5809 5810 5812 5813 5816 5817 5819 5821 5824 5826 5827 5830 5836 5835 5833 5837 5843 5843 5844 5847 5855 5857 5857 5859 5863 5870 5874 5876
5808 5808 5808 5809 5808 5807 5806 5805 5804 5803 5802 5801 5800 5800 5800 5801 5802 5803 5804 5805 5806 5807 5808 5809 5811 5812 5814 5817 5819 5821 5824 5829 5829 5825 5828 5831 5832 5838 5841 5847 5853 5854 5854 5856 5861 5866 5869
5809 5809 5809 5809 5808 5807 5805 5804 5802 5801 5800 5799 5798 5798 5798 5798 5798 5799 5799 5800 5800 5801 5802 5803 5805 5807 5808 5810 5813 5815 5819 5822 5823 5813 5818 5821 5823 5829 5833 5838 5842 5845 5850 5852 5852 5857 5863
5810 5810 5809 5808 5807 5805 5803 5801 5800 5798 5797 5797 5796 5795 5795 5795 5795 5796 5795 5796 5796 5796 5797 5798 5798 5800 5802 5803 5806 5807 5813 5809 5804 5803 5811 5816 5816 5821 5824 5829 5833 5835 5838 5844 5847 5848 5852
5810 5809 5807 5806 5804 5802 5800 5798 5796 5795 5794 5794 5793 5793 5792 5792 5791 5792 5792 5791 5791 5791 5792 5792 5792 5793 5795 5797 5795 5796 5794 5794 5798 5803 5805 5809 5810 5813 5816 5822 5823 5820 5827 5835 5840 5844 5845
5808 5807 5805 5803 5800 5798 5795 5793 5791 5791 5790 5790 5789 5789 5789 5788 5788 5787 5787 5787 5787 5786 5787 5787 5787 5788 5790 5787 5789 5790 5789 5789 5791 5794 5795 5796 5795 5805 5809 5813 5807 5815 5822 5826 5830 5835 5840
5806 5804 5802 5800 5797 5794 5792 5790 5788 5787 5786 5786 5785 5785 5784 5784 5783 5782 5782 5781 5781 5781 5781 5782 5782 5782 5782 5781 5782 5781 5782 5783 5782 5786 5788 5791 5793 5796 5799 5799 5794 5796 5810 5819 5822 5824 5828
5803 5801 5799 5796 5794 5791 5789 5787 5785 5784 5783 5782 5780 5780 5779 5779 5778 5777 5777 5776 5776 5776 5776 5777 5777 5776 5775 5775 5775 5774 5775 5777 5778 5779 5781 5779 5777 5781 5781 5786 5785 5795 5800 5806 5816 5814 5820
5799 5797 5795 5793 5791 5788 5786 5783 5781 5779 5778 5777 5775 5774 5773 5773 5771 5771 5771 5770 5769 5769 5770 5770 5771 5770 5769 5769 5768 5768 5769 5770 5767 5767 5773 5774 5774 5773 5778 5776 5776 5786 5786 5794 5797 5806 5814
5795 5793 5791 5788 5786 5784 5781 5779 5776 5774 5772 5771 5769 5767 5767 5766 5764 5764 5763 5763 5762 5762 5763 5764 5765 5763 5763 5763 5763 5762 5763 5758 5758 5760 5762 5759 5760 5761 5762 5765 5771 5775 5773 5781 5786 5793 5804
5791 5788 5786 5783 5780 5778 5775 5773 5771 5768 5766 5764 5763 5761 5759 5758 5758 5756 5755 5755 5754 5754 5755 5756 5757 5756 5757 5756 5756 5757 5756 5751 5748 5755 5756 5755 5748 5749 5741 5758 5764 5769 5768 5771 5771 5781 5767